Weather Roundup
Issued by NWS Corpus Christi, TX

Home | Current Version | Previous Version | Text Only | Print | Product List | Glossary On
Versions: 1 2 3 4 5 6 7 8 9 10 11 12 13 14 15 16 17 18 19 20 21 22 23 24 25 26 27 28 29 30 31 32 33 34 35 36 37 38 39 40 41 42 43 44 45 46 47 48 49 50
000
ASUS44 KCRP 182211
HRRCRP

SOUTH TEXAS REGIONAL WEATHER ROUNDUP
NATIONAL WEATHER SERVICE CORPUS CHRISTI TX
500 PM CDT FRI AUG 18 2017


TXZ229>244-182300-
...CORPUS CHRISTI AREA OBSERVATIONS...

CITY           SKY/WX    TMP DP  RH WIND       PRES   REMARKS
CORPUS CHRISTI MOSUNNY   95  75  52 E18G24    29.93F HX 107
NAS CORPUS CHR MOSUNNY   92  78  63 SE21      29.95R HX 107
ROCKPORT         N/A     92  76  59 SE14      29.95F HX 104
KINGSVILLE ARP FAIR      99  76  47 E13G21    29.91S HX 113
KINGSVILLE NAS MOSUNNY   98  76  49 E16G23    29.92S HX 112
ALICE          PTSUNNY   99  71  40 E13       29.89F HX 107
FALFURRIAS     SUNNY     99  72  40 CALM      29.88F HX 108
$$

...VICTORIA AREA OBSERVATIONS...

CITY           SKY/WX    TMP DP  RH WIND       PRES   REMARKS
PORT LAVACA    SUNNY     91  74  58 SE15G21   29.96S HX 101
VICTORIA       SUNNY     96  74  48 SE16      29.94F HX 107
BEEVILLE       FAIR     102  70  35 SE17      29.92S HX 109
PLEASANTON     SUNNY    102  61  25 E12       29.91F HX 103
SAN ANTONIO    MOSUNNY   96  67  38 SE14      29.96F HX 100
$$

...LAREDO AREA OBSERVATIONS...

CITY           SKY/WX    TMP DP  RH WIND       PRES   REMARKS
LAREDO         SUNNY    105  65  27 SE15      29.87F HX 109
COTULLA        MOSUNNY  103  57  21 SE12G22   29.88F HX 102
DEL RIO        SUNNY    100  62  28 S10       29.90F HX 101
MCALLEN        MOSUNNY  102  69  34 E12G21    29.88F HX 109
HEBBRONVILLE   SUNNY    100  61  27 S12G18    29.91F HX 100
$$

...OTHER TEXAS OBSERVATIONS...

CITY           SKY/WX    TMP DP  RH WIND       PRES   REMARKS
BROWNSVILLE    SUNNY     93  75  55 SE18G24   29.93F HX 104
HOUSTON        MOSUNNY   98  71  41 VRB6      29.96F HX 106
COL. STATION   SUNNY     98  67  36 SE6       29.95F HX 102
AUSTIN         MOSUNNY   98  68  37 VRB7      29.94F HX 103
WACO           SUNNY     97  71  42 N6        29.96F HX 104
FORT WORTH     CLOUDY    84  75  74 N9        29.96F HX  92
WICHITA FALLS  MOSUNNY   91  71  51 S16       29.95F HX  97
LUBBOCK        MOSUNNY   92  63  38 S15       30.05F HX  93
EL PASO        MOSUNNY   94  56  27 S9        30.04F HX  92
$$

...MARINE OBSERVATIONS...

STATION/POSITION TIME  SKY/WX   TEMP    WIND        PRES    VSBY  WAVE   SWELL
                                AIR SEA DIR/SP/G                  HT/PER HT/PER
                 (UTC)          (F)     (DEG/KT/KT) (MB)    (MI)  (FT/S) (FT/S)
PORT ARANSAS     2100            84 89  110/ 12/ 13 1014.9F
BUOY 90 E PORT A 2150            86 88   90/  6/  8 1015.3F         3/ 5   3/ 5
BUOY 45 SE BAFFI 2150            85     120/ 12/ 12 1013.5F         3/ 6   3/ 6
BUOY 200 E PT IS 2150            87 89  130/  4/  4 1015.7F         2/ 6   2/ 6
BUOY 15 E GALVES 2050            87 89  210/  4/  6 1016.0          2/ 6   2/ 6
$$



USA.gov is the U.S. government's official web portal to all federal, state and local government web resources and services.